PLA_CODE;SMP_DB_REAL;SMP_DE_REAL;SMP_D_ANALYSIS;POL_CODE;MEA_CODE;MEA_PHYSICAL_UNIT;MEA_VALUE;MEA_F_STATUS;JOB_TYPE;
"PBW02e";"2017/04/12 00:01";"2017/04/12 23:59";"20170612";"PM10";"PM10";"ug/m3";"12.5658803924256";"A";"DATA_VALIDATE_ENV";
"PBW02e";"2017/04/13 00:01";"2017/04/13 23:59";"20170612";"PM10";"PM10";"ug/m3";"12.4545808454383";"A";"DATA_VALIDATE_ENV";
"PBW02e";"2017/04/14 00:01";"2017/04/14 23:59";"20170612";"PM10";"PM10";"ug/m3";"14.1420454349158";"A";"DATA_VALIDATE_ENV";
"PBW02e";"2017/04/15 00:01";"2017/04/15 23:59";"20170612";"PM10";"PM10";"ug/m3";"11.8673918489924";"A";"DATA_VALIDATE_ENV";
"PBW02e";"2017/04/16 00:01";"2017/04/16 23:59";"20170612";"PM10";"PM10";"ug/m3";"10.7219694141726";"A";"DATA_VALIDATE_ENV";
"PBW02e";"2017/04/17 00:01";"2017/04/17 23:59";"20170612";"PM10";"PM10";"ug/m3";"7.45652808506361";"A";"DATA_VALIDATE_ENV";
"PBW02e";"2017/04/18 00:01";"2017/04/18 23:59";"20170612";"PM10";"PM10";"ug/m3";"7.91908045811646";"A";"DATA_VALIDATE_ENV";
"PBW02e";"2017/04/19 00:01";"2017/04/19 23:59";"20170612";"PM10";"PM10";"ug/m3";"8.85364711717182";"A";"DATA_VALIDATE_ENV";
"PBW02e";"2017/04/20 00:01";"2017/04/20 23:59";"20170612";"PM10";"PM10";"ug/m3";"12.1210171293377";"A";"DATA_VALIDATE_ENV";
"PBW02e";"2017/04/21 00:01";"2017/04/21 23:59";"20170612";"PM10";"PM10";"ug/m3";"27.1770470547226";"A";"DATA_VALIDATE_ENV";
"PBW02e";"2017/04/22 00:01";"2017/04/22 23:59";"20170612";"PM10";"PM10";"ug/m3";"15.2607791286656";"A";"DATA_VALIDATE_ENV";
"PBW02e";"2017/04/23 00:01";"2017/04/23 23:59";"20170612";"PM10";"PM10";"ug/m3";"8.77173398506486";"A";"DATA_VALIDATE_ENV";
"PBW02e";"2017/04/24 00:01";"2017/04/24 23:59";"20170612";"PM10";"PM10";"ug/m3";"11.2212880775441";"A";"DATA_VALIDATE_ENV";
"PBW02e";"2017/04/25 00:01";"2017/04/25 23:59";"20170612";"PM10";"PM10";"ug/m3";"10.358902297276";"A";"DATA_VALIDATE_ENV";
"PBW02e";"2017/04/26 00:01";"2017/04/26 23:59";"20170612";"PM10";"PM10";"ug/m3";"11.0669237262798";"A";"DATA_VALIDATE_ENV";
"PBW02e";"2017/04/27 00:01";"2017/04/27 23:59";"20170612";"PM10";"PM10";"ug/m3";"15.2058900754566";"A";"DATA_VALIDATE_ENV";
"PBW02e";"2017/04/28 00:01";"2017/04/28 23:59";"20170612";"PM10";"PM10";"ug/m3";"15.6659541005493";"A";"DATA_VALIDATE_ENV";
"PBW02e";"2017/04/29 00:01";"2017/04/29 23:59";"20170612";"PM10";"PM10";"ug/m3";"15.0785366564346";"A";"DATA_VALIDATE_ENV";
"PBW02e";"2017/04/30 00:01";"2017/04/30 23:59";"20170612";"PM10";"PM10";"ug/m3";"10.1958870541721";"A";"DATA_VALIDATE_ENV";
"PBW02e";"2017/05/01 00:01";"2017/05/01 23:59";"20170612";"PM10";"PM10";"ug/m3";"6.62198736290454";"A";"DATA_VALIDATE_ENV";
"PBW02e";"2017/05/02 00:01";"2017/05/02 23:59";"20170612";"PM10";"PM10";"ug/m3";"10.9217509475952";"A";"DATA_VALIDATE_ENV";
"PBW02e";"2017/05/03 00:01";"2017/05/03 23:59";"20170612";"PM10";"PM10";"ug/m3";"13.7335611358609";"A";"DATA_VALIDATE_ENV";
"PBW02e";"2017/05/04 00:01";"2017/05/04 23:59";"20170612";"PM10";"PM10";"ug/m3";"15.0033498537039";"A";"DATA_VALIDATE_ENV";
"PBW02e";"2017/05/05 00:01";"2017/05/05 23:59";"20170612";"PM10";"PM10";"ug/m3";"19.3942181430811";"A";"DATA_VALIDATE_ENV";
"PBW02e";"2017/05/06 00:01";"2017/05/06 23:59";"20170612";"PM10";"PM10";"ug/m3";"9.90733890952226";"A";"DATA_VALIDATE_ENV";
"PBW02e";"2017/05/07 00:01";"2017/05/07 23:59";"20170612";"PM10";"PM10";"ug/m3";"19.2579665966062";"A";"DATA_VALIDATE_ENV";
"PBW02e";"2017/05/08 00:01";"2017/05/08 23:59";"20170612";"PM10";"PM10";"ug/m3";"14.2869478732304";"A";"DATA_VALIDATE_ENV";
"PBW02e";"2017/05/09 00:01";"2017/05/09 23:59";"20170706";"PM10";"PM10";"ug/m3";"17.7337880986938";"A";"DATA_VALIDATE_ENV";
"PBW02e";"2017/05/10 00:01";"2017/05/10 23:59";"20170706";"PM10";"PM10";"ug/m3";"16.5999800435414";"A";"DATA_VALIDATE_ENV";
"PBW02e";"2017/05/11 00:01";"2017/05/11 23:59";"20170706";"PM10";"PM10";"ug/m3";"11.4659452104499";"A";"DATA_VALIDATE_ENV";
"PBW02e";"2017/05/12 00:01";"2017/05/12 23:59";"20170706";"PM10";"PM10";"ug/m3";"8.71870622391581";"A";"DATA_VALIDATE_ENV";
"PBW02e";"2017/05/13 00:01";"2017/05/13 23:59";"20170706";"PM10";"PM10";"ug/m3";"5.01616473149492";"A";"DATA_VALIDATE_ENV";
"PBW02e";"2017/05/14 00:01";"2017/05/14 23:59";"20170706";"PM10";"PM10";"ug/m3";"3.6739259796807";"A";"DATA_VALIDATE_ENV";
"PBW02e";"2017/05/15 00:01";"2017/05/15 23:59";"20170706";"PM10";"PM10";"ug/m3";"8.43570029027576";"A";"DATA_VALIDATE_ENV";
"PBW02e";"2017/05/16 00:01";"2017/05/16 23:59";"20170706";"PM10";"PM10";"ug/m3";"11.5113624818578";"A";"DATA_VALIDATE_ENV";
"PBW02e";"2017/05/17 00:01";"2017/05/17 23:59";"20170706";"PM10";"PM10";"ug/m3";"12.1463933236575";"A";"DATA_VALIDATE_ENV";
"PBW02e";"2017/05/18 00:01";"2017/05/18 23:59";"20170706";"PM10";"PM10";"ug/m3";"7.87509163491199";"A";"DATA_VALIDATE_ENV";
"PBW02e";"2017/05/19 00:01";"2017/05/19 23:59";"20170706";"PM10";"PM10";"ug/m3";"6.39517235123367";"A";"DATA_VALIDATE_ENV";
"PBW02e";"2017/05/20 00:01";"2017/05/20 23:59";"20170706";"PM10";"PM10";"ug/m3";"5.53433133732535";"A";"DATA_VALIDATE_ENV";
"PBW02e";"2017/05/21 00:01";"2017/05/21 23:59";"20170706";"PM10";"PM10";"ug/m3";"4.77123730043541";"A";"DATA_VALIDATE_ENV";
"PBW02e";"2017/05/22 00:01";"2017/05/22 23:59";"20170706";"PM10";"PM10";"ug/m3";"9.30673802612482";"A";"DATA_VALIDATE_ENV";
"PBW02e";"2017/05/23 00:01";"2017/05/23 23:59";"20170706";"PM10";"PM10";"ug/m3";"12.5111885320269";"A";"DATA_VALIDATE_ENV";
"PBW02e";"2017/05/24 00:01";"2017/05/24 23:59";"20170706";"PM10";"PM10";"ug/m3";"10.6043704644412";"A";"DATA_VALIDATE_ENV";
"PBW02e";"2017/05/25 00:01";"2017/05/25 23:59";"20170706";"PM10";"PM10";"ug/m3";"7.5214226093268";"A";"DATA_VALIDATE_ENV";
"PBW02e";"2017/05/26 00:01";"2017/05/26 23:59";"20170706";"PM10";"PM10";"ug/m3";"6.66740384615385";"A";"DATA_VALIDATE_ENV";
"PBW02e";"2017/08/30 00:01";"2017/08/30 23:59";"20171002";"PM10";"PM10";"ug/m3";"17.4431398794636";"A";"DATA_VALIDATE_ENV";
"PBW02e";"2017/08/31 00:01";"2017/08/31 23:59";"20171002";"PM10";"PM10";"ug/m3";"4.09998205126803";"A";"DATA_VALIDATE_ENV";
"PBW02e";"2017/09/01 00:01";"2017/09/01 23:59";"20171002";"PM10";"PM10";"ug/m3";"4.80773313990179";"A";"DATA_VALIDATE_ENV";
"PBW02e";"2017/09/02 00:01";"2017/09/02 23:59";"20171002";"PM10";"PM10";"ug/m3";"10.5589541710686";"A";"DATA_VALIDATE_ENV";
"PBW02e";"2017/09/03 00:01";"2017/09/03 23:59";"20171002";"PM10";"PM10";"ug/m3";"7.56520491379958";"A";"DATA_VALIDATE_ENV";
"PBW02e";"2017/09/04 00:01";"2017/09/04 23:59";"20171002";"PM10";"PM10";"ug/m3";"9.53901525979727";"A";"DATA_VALIDATE_ENV";
"PBW02e";"2017/09/05 00:01";"2017/09/05 23:59";"20171002";"PM10";"PM10";"ug/m3";"6.12320938027303";"A";"DATA_VALIDATE_ENV";
"PBW02e";"2017/09/06 00:01";"2017/09/06 23:59";"20171002";"PM10";"PM10";"ug/m3";"5.51621465279779";"A";"DATA_VALIDATE_ENV";
"PBW02e";"2017/09/07 00:01";"2017/09/07 23:59";"20171002";"PM10";"PM10";"ug/m3";"18.9891789055113";"A";"DATA_VALIDATE_ENV";
"PBW02e";"2017/09/08 00:01";"2017/09/08 23:59";"20171002";"PM10";"PM10";"ug/m3";"8.51023675222575";"A";"DATA_VALIDATE_ENV";
"PBW02e";"2017/09/09 00:01";"2017/09/09 23:59";"20171002";"PM10";"PM10";"ug/m3";"2";"O";"DATA_VALIDATE_ENV";
"PBW02e";"2017/09/10 00:01";"2017/09/10 23:59";"20171002";"PM10";"PM10";"ug/m3";"3.04781733126703";"A";"DATA_VALIDATE_ENV";
"PBW02e";"2017/09/11 00:01";"2017/09/11 23:59";"20171002";"PM10";"PM10";"ug/m3";"5.09900377052403";"A";"DATA_VALIDATE_ENV";
"PBW02e";"2017/09/12 00:01";"2017/09/12 23:59";"20171212";"PM10";"PM10";"ug/m3";"3.98211364995239";"A";"DATA_VALIDATE_ENV";
"PBW02e";"2017/09/13 00:01";"2017/09/13 23:59";"20171212";"PM10";"PM10";"ug/m3";"2.38591628333355";"A";"DATA_VALIDATE_ENV";
"PBW02e";"2017/09/14 00:01";"2017/09/14 23:59";"20171212";"PM10";"PM10";"ug/m3";"2";"O";"DATA_VALIDATE_ENV";
"PBW02e";"2017/09/15 00:01";"2017/09/15 23:59";"20171212";"PM10";"PM10";"ug/m3";"3.66473405558416";"A";"DATA_VALIDATE_ENV";
"PBW02e";"2017/09/16 00:01";"2017/09/16 23:59";"20171212";"PM10";"PM10";"ug/m3";"3.68284686037349";"A";"DATA_VALIDATE_ENV";
"PBW02e";"2017/09/17 00:01";"2017/09/17 23:59";"20171212";"PM10";"PM10";"ug/m3";"3.77409558961578";"A";"DATA_VALIDATE_ENV";
"PBW02e";"2017/09/18 00:01";"2017/09/18 23:59";"20171212";"PM10";"PM10";"ug/m3";"5.14349587942935";"A";"DATA_VALIDATE_ENV";
"PBW02e";"2017/09/19 00:01";"2017/09/19 23:59";"20171212";"PM10";"PM10";"ug/m3";"5.82367225032413";"A";"DATA_VALIDATE_ENV";
"PBW02e";"2017/09/20 00:01";"2017/09/20 23:59";"20171212";"PM10";"PM10";"ug/m3";"8.72631680290654";"A";"DATA_VALIDATE_ENV";
"PBW02e";"2017/09/21 00:01";"2017/09/21 23:59";"20171212";"PM10";"PM10";"ug/m3";"8.84445554459216";"A";"DATA_VALIDATE_ENV";
"PBW02e";"2017/09/22 00:01";"2017/09/22 23:59";"20171212";"PM10";"PM10";"ug/m3";"10.2431625749688";"A";"DATA_VALIDATE_ENV";
"PBW02e";"2017/09/23 00:01";"2017/09/23 23:59";"20171212";"PM10";"PM10";"ug/m3";"16.3009836296558";"A";"DATA_VALIDATE_ENV";
"PBW02e";"2017/09/24 00:01";"2017/09/24 23:59";"20171212";"PM10";"PM10";"ug/m3";"15.6961061023926";"A";"DATA_VALIDATE_ENV";
"PBW02e";"2017/09/25 00:01";"2017/09/25 23:59";"20171212";"PM10";"PM10";"ug/m3";"12.7811520123862";"A";"DATA_VALIDATE_ENV";
"PBW02e";"2017/09/26 00:01";"2017/09/26 23:59";"20171212";"PM10";"PM10";"ug/m3";"12.1190884462808";"A";"DATA_VALIDATE_ENV";
"PBW02e";"2017/09/27 00:01";"2017/09/27 23:59";"20171212";"PM10";"PM10";"ug/m3";"17.9154563192359";"A";"DATA_VALIDATE_ENV";
"PBW02e";"2017/09/28 00:01";"2017/09/28 23:59";"20171212";"PM10";"PM10";"ug/m3";"17.4072164236548";"A";"DATA_VALIDATE_ENV";
"PBW02e";"2017/09/29 00:01";"2017/09/29 23:59";"20171212";"PM10";"PM10";"ug/m3";"13.7516739406503";"A";"DATA_VALIDATE_ENV";
"PBW02e";"2017/09/30 00:01";"2017/09/30 23:59";"20171212";"PM10";"PM10";"ug/m3";"2.08632480079348";"A";"DATA_VALIDATE_ENV";
"PBW02e";"2017/10/01 00:01";"2017/10/01 23:59";"20171212";"PM10";"PM10";"ug/m3";"4.98913152816507";"A";"DATA_VALIDATE_ENV";
"PBW02e";"2017/10/02 00:01";"2017/10/02 23:59";"20171212";"PM10";"PM10";"ug/m3";"5.36084953690129";"A";"DATA_VALIDATE_ENV";
"PBW02e";"2017/10/03 00:01";"2017/10/03 23:59";"20171212";"PM10";"PM10";"ug/m3";"5.16160868421867";"A";"DATA_VALIDATE_ENV";
"PBW02e";"2017/10/04 00:01";"2017/10/04 23:59";"20171212";"PM10";"PM10";"ug/m3";"12.1463928236498";"A";"DATA_VALIDATE_ENV";
"PBW02e";"2017/10/05 00:01";"2017/10/05 23:59";"20171212";"PM10";"PM10";"ug/m3";"8.51942999266471";"A";"DATA_VALIDATE_ENV";
"PBW02e";"2017/10/06 00:01";"2017/10/06 23:59";"20171212";"PM10";"PM10";"ug/m3";"7.5760412899731";"A";"DATA_VALIDATE_ENV";
"PBW02e";"2017/10/07 00:01";"2017/10/07 23:59";"20171212";"PM10";"PM10";"ug/m3";"7.31241160091483";"A";"DATA_VALIDATE_ENV";
"PBW02e";"2017/10/08 00:01";"2017/10/08 23:59";"20171212";"PM10";"PM10";"ug/m3";"3.26544132910896";"A";"DATA_VALIDATE_ENV";
"PBW02e";"2017/10/09 00:01";"2017/10/09 23:59";"20171212";"PM10";"PM10";"ug/m3";"7.07690241202277";"A";"DATA_VALIDATE_ENV";
"PBW02e";"2017/10/10 00:01";"2017/10/10 23:59";"20171212";"PM10";"PM10";"ug/m3";"8.44543315848695";"A";"DATA_VALIDATE_ENV";
"PBW02e";"2017/10/11 00:01";"2017/10/11 23:59";"20171212";"PM10";"PM10";"ug/m3";"9.13618827034873";"A";"DATA_VALIDATE_ENV";
"PBW02e";"2017/10/12 00:01";"2017/10/12 23:59";"20171212";"PM10";"PM10";"ug/m3";"10.5154447256167";"A";"DATA_VALIDATE_ENV";
"PBW02e";"2017/10/13 00:01";"2017/10/13 23:59";"20171212";"PM10";"PM10";"ug/m3";"13.651918344124";"A";"DATA_VALIDATE_ENV";
"PES04e";"2017/04/12 00:01";"2017/04/12 23:59";"20170612";"PM10";"PM10";"ug/m3";"26.8669341075585";"A";"DATA_VALIDATE_ENV";
"PES04e";"2017/04/13 00:01";"2017/04/13 23:59";"20170612";"PM10";"PM10";"ug/m3";"19.8202745661853";"A";"DATA_VALIDATE_ENV";
"PES04e";"2017/04/15 00:01";"2017/04/15 23:59";"20170612";"PM10";"PM10";"ug/m3";"20.0960366426818";"A";"DATA_VALIDATE_ENV";
"PES04e";"2017/04/16 00:01";"2017/04/16 23:59";"20170612";"PM10";"PM10";"ug/m3";"16.2977565119795";"A";"DATA_VALIDATE_ENV";
"PES04e";"2017/04/17 00:01";"2017/04/17 23:59";"20170612";"PM10";"PM10";"ug/m3";"10.4932501336396";"A";"DATA_VALIDATE_ENV";
"PES04e";"2017/04/18 00:01";"2017/04/18 23:59";"20170612";"PM10";"PM10";"ug/m3";"10.2305269578657";"A";"DATA_VALIDATE_ENV";
"PES04e";"2017/04/19 00:01";"2017/04/19 23:59";"20170612";"PM10";"PM10";"ug/m3";"13.0691265380904";"A";"DATA_VALIDATE_ENV";
"PES04e";"2017/04/20 00:01";"2017/04/20 23:59";"20170612";"PM10";"PM10";"ug/m3";"18.9368810883758";"A";"DATA_VALIDATE_ENV";
"PES04e";"2017/04/21 00:01";"2017/04/21 23:59";"20170612";"PM10";"PM10";"ug/m3";"29.2852550674735";"A";"DATA_VALIDATE_ENV";
"PES04e";"2017/04/22 00:01";"2017/04/22 23:59";"20170612";"PM10";"PM10";"ug/m3";"19.2360935941184";"A";"DATA_VALIDATE_ENV";
"PES04e";"2017/04/23 00:01";"2017/04/23 23:59";"20170612";"PM10";"PM10";"ug/m3";"11.6743785376473";"A";"DATA_VALIDATE_ENV";
"PES04e";"2017/04/24 00:01";"2017/04/24 23:59";"20170612";"PM10";"PM10";"ug/m3";"20.5004509370801";"A";"DATA_VALIDATE_ENV";
"PES04e";"2017/04/25 00:01";"2017/04/25 23:59";"20170612";"PM10";"PM10";"ug/m3";"13.6973355262823";"A";"DATA_VALIDATE_ENV";
"PES04e";"2017/04/26 00:01";"2017/04/26 23:59";"20170612";"PM10";"PM10";"ug/m3";"12.4798914319306";"A";"DATA_VALIDATE_ENV";
"PES04e";"2017/04/27 00:01";"2017/04/27 23:59";"20170612";"PM10";"PM10";"ug/m3";"15.9804344869192";"A";"DATA_VALIDATE_ENV";
"PES04e";"2017/04/28 00:01";"2017/04/28 23:59";"20170612";"PM10";"PM10";"ug/m3";"22.3563367434342";"A";"DATA_VALIDATE_ENV";
"PES04e";"2017/04/29 00:01";"2017/04/29 23:59";"20170612";"PM10";"PM10";"ug/m3";"19.8620883215799";"A";"DATA_VALIDATE_ENV";
"PES04e";"2017/04/30 00:01";"2017/04/30 23:59";"20170612";"PM10";"PM10";"ug/m3";"13.1234550960436";"A";"DATA_VALIDATE_ENV";
"PES04e";"2017/05/01 00:01";"2017/05/01 23:59";"20170612";"PM10";"PM10";"ug/m3";"10.1124096453006";"A";"DATA_VALIDATE_ENV";
"PES04e";"2017/05/02 00:01";"2017/05/02 23:59";"20170612";"PM10";"PM10";"ug/m3";"15.0217329988632";"A";"DATA_VALIDATE_ENV";
"PES04e";"2017/05/03 00:01";"2017/05/03 23:59";"20170612";"PM10";"PM10";"ug/m3";"18.6198293546486";"A";"DATA_VALIDATE_ENV";
"PES04e";"2017/05/04 00:01";"2017/05/04 23:59";"20170612";"PM10";"PM10";"ug/m3";"16.0166535255547";"A";"DATA_VALIDATE_ENV";
"PES04e";"2017/05/05 00:01";"2017/05/05 23:59";"20170612";"PM10";"PM10";"ug/m3";"23.3852530252432";"A";"DATA_VALIDATE_ENV";
"PES04e";"2017/05/06 00:01";"2017/05/06 23:59";"20170612";"PM10";"PM10";"ug/m3";"16.4066839192192";"A";"DATA_VALIDATE_ENV";
"PES04e";"2017/05/07 00:01";"2017/05/07 23:59";"20170612";"PM10";"PM10";"ug/m3";"19.5355763911941";"A";"DATA_VALIDATE_ENV";
"PES04e";"2017/05/08 00:01";"2017/05/08 23:59";"20170612";"PM10";"PM10";"ug/m3";"15.0343906546487";"A";"DATA_VALIDATE_ENV";
"PES04e";"2017/05/09 00:01";"2017/05/09 23:59";"20170706";"PM10";"PM10";"ug/m3";"16.636476777939";"A";"DATA_VALIDATE_ENV";
"PES04e";"2017/05/10 00:01";"2017/05/10 23:59";"20170706";"PM10";"PM10";"ug/m3";"19.8620896063849";"A";"DATA_VALIDATE_ENV";
"PES04e";"2017/05/11 00:01";"2017/05/11 23:59";"20170706";"PM10";"PM10";"ug/m3";"15.1758272859216";"A";"DATA_VALIDATE_ENV";
"PES04e";"2017/05/12 00:01";"2017/05/12 23:59";"20170706";"PM10";"PM10";"ug/m3";"8.38038273172501";"A";"DATA_VALIDATE_ENV";
"PES04e";"2017/05/13 00:01";"2017/05/13 23:59";"20170706";"PM10";"PM10";"ug/m3";"3.75461636132777";"A";"DATA_VALIDATE_ENV";
"PES04e";"2017/05/14 00:01";"2017/05/14 23:59";"20170706";"PM10";"PM10";"ug/m3";"4.30790313803737";"A";"DATA_VALIDATE_ENV";
"PES04e";"2017/05/15 00:01";"2017/05/15 23:59";"20170706";"PM10";"PM10";"ug/m3";"9.21477235624887";"A";"DATA_VALIDATE_ENV";
"PES04e";"2017/05/16 00:01";"2017/05/16 23:59";"20170706";"PM10";"PM10";"ug/m3";"17.8338134978229";"A";"DATA_VALIDATE_ENV";
"PES04e";"2017/05/17 00:01";"2017/05/17 23:59";"20170706";"PM10";"PM10";"ug/m3";"15.2457826954471";"A";"DATA_VALIDATE_ENV";
"PES04e";"2017/05/18 00:01";"2017/05/18 23:59";"20170706";"PM10";"PM10";"ug/m3";"6.77458189733358";"A";"DATA_VALIDATE_ENV";
"PES04e";"2017/05/19 00:01";"2017/05/19 23:59";"20170706";"PM10";"PM10";"ug/m3";"7.22944303338171";"A";"DATA_VALIDATE_ENV";
"PES04e";"2017/05/20 00:01";"2017/05/20 23:59";"20170706";"PM10";"PM10";"ug/m3";"3.80002539452204";"A";"DATA_VALIDATE_ENV";
"PES04e";"2017/05/21 00:01";"2017/05/21 23:59";"20170706";"PM10";"PM10";"ug/m3";"6.39401233448213";"A";"DATA_VALIDATE_ENV";
"PES04e";"2017/05/22 00:01";"2017/05/22 23:59";"20170706";"PM10";"PM10";"ug/m3";"10.6202865953202";"A";"DATA_VALIDATE_ENV";
"PES04e";"2017/05/23 00:01";"2017/05/23 23:59";"20170706";"PM10";"PM10";"ug/m3";"14.7260446137106";"A";"DATA_VALIDATE_ENV";
"PES04e";"2017/05/24 00:01";"2017/05/24 23:59";"20170706";"PM10";"PM10";"ug/m3";"14.3021948122619";"A";"DATA_VALIDATE_ENV";
"PES04e";"2017/05/25 00:01";"2017/05/25 23:59";"20170706";"PM10";"PM10";"ug/m3";"8.02630146925449";"A";"DATA_VALIDATE_ENV";
"PES04e";"2017/05/26 00:01";"2017/05/26 23:59";"20170706";"PM10";"PM10";"ug/m3";"8.8701505532378";"A";"DATA_VALIDATE_ENV";
"PES04e";"2017/08/30 00:01";"2017/08/30 23:59";"20171002";"PM10";"PM10";"ug/m3";"19.7607875302531";"A";"DATA_VALIDATE_ENV";
"PES04e";"2017/08/31 00:01";"2017/08/31 23:59";"20171002";"PM10";"PM10";"ug/m3";"5.52413512037524";"A";"DATA_VALIDATE_ENV";
"PES04e";"2017/09/01 00:01";"2017/09/01 23:59";"20171002";"PM10";"PM10";"ug/m3";"10.7763078285406";"A";"DATA_VALIDATE_ENV";
"PES04e";"2017/09/02 00:01";"2017/09/02 23:59";"20171002";"PM10";"PM10";"ug/m3";"8.96042798362495";"A";"DATA_VALIDATE_ENV";
"PES04e";"2017/09/03 00:01";"2017/09/03 23:59";"20171002";"PM10";"PM10";"ug/m3";"10.0943001259829";"A";"DATA_VALIDATE_ENV";
"PES04e";"2017/09/04 00:01";"2017/09/04 23:59";"20171002";"PM10";"PM10";"ug/m3";"12.1826184332284";"A";"DATA_VALIDATE_ENV";
"PES04e";"2017/09/05 00:01";"2017/09/05 23:59";"20171002";"PM10";"PM10";"ug/m3";"11.427376980836";"A";"DATA_VALIDATE_ENV";
"PES04e";"2017/09/06 00:01";"2017/09/06 23:59";"20171002";"PM10";"PM10";"ug/m3";"11.6402647322653";"A";"DATA_VALIDATE_ENV";
"PES04e";"2017/09/07 00:01";"2017/09/07 23:59";"20171002";"PM10";"PM10";"ug/m3";"24.0248451426655";"A";"DATA_VALIDATE_ENV";
"PES04e";"2017/09/08 00:01";"2017/09/08 23:59";"20171002";"PM10";"PM10";"ug/m3";"8.842580962393";"A";"DATA_VALIDATE_ENV";
"PES04e";"2017/09/09 00:01";"2017/09/09 23:59";"20171002";"PM10";"PM10";"ug/m3";"3.11997285798265";"A";"DATA_VALIDATE_ENV";
"PES04e";"2017/09/10 00:01";"2017/09/10 23:59";"20171002";"PM10";"PM10";"ug/m3";"4.05456486910971";"A";"DATA_VALIDATE_ENV";
"PES04e";"2017/09/11 00:01";"2017/09/11 23:59";"20171002";"PM10";"PM10";"ug/m3";"6.98351717332563";"A";"DATA_VALIDATE_ENV";
"PES04e";"2017/09/12 00:01";"2017/09/12 23:59";"20171212";"PM10";"PM10";"ug/m3";"9.78794343585719";"A";"DATA_VALIDATE_ENV";
"PES04e";"2017/09/13 00:01";"2017/09/13 23:59";"20171212";"PM10";"PM10";"ug/m3";"10.2869917588587";"A";"DATA_VALIDATE_ENV";
"PES04e";"2017/09/14 00:01";"2017/09/14 23:59";"20171212";"PM10";"PM10";"ug/m3";"8.69797509918407";"A";"DATA_VALIDATE_ENV";
"PES04e";"2017/09/15 00:01";"2017/09/15 23:59";"20171212";"PM10";"PM10";"ug/m3";"7.04703563660432";"A";"DATA_VALIDATE_ENV";
"PES04e";"2017/09/16 00:01";"2017/09/16 23:59";"20171212";"PM10";"PM10";"ug/m3";"7.24651064043272";"A";"DATA_VALIDATE_ENV";
"PES04e";"2017/09/17 00:01";"2017/09/17 23:59";"20171212";"PM10";"PM10";"ug/m3";"5.01525568568553";"A";"DATA_VALIDATE_ENV";
"PES04e";"2017/09/18 00:01";"2017/09/18 23:59";"20171212";"PM10";"PM10";"ug/m3";"7.61954332816757";"A";"DATA_VALIDATE_ENV";
"PES04e";"2017/09/19 00:01";"2017/09/19 23:59";"20171212";"PM10";"PM10";"ug/m3";"9.28721020534383";"A";"DATA_VALIDATE_ENV";
"PES04e";"2017/09/20 00:01";"2017/09/20 23:59";"20171212";"PM10";"PM10";"ug/m3";"10.468119806752";"A";"DATA_VALIDATE_ENV";
"PES04e";"2017/09/21 00:01";"2017/09/21 23:59";"20171212";"PM10";"PM10";"ug/m3";"15.7082511144867";"A";"DATA_VALIDATE_ENV";
"PES04e";"2017/09/22 00:01";"2017/09/22 23:59";"20171212";"PM10";"PM10";"ug/m3";"24.8595047792808";"A";"DATA_VALIDATE_ENV";
"PES04e";"2017/09/23 00:01";"2017/09/23 23:59";"20171212";"PM10";"PM10";"ug/m3";"22.6466296351845";"A";"DATA_VALIDATE_ENV";
"PES04e";"2017/09/24 00:01";"2017/09/24 23:59";"20171212";"PM10";"PM10";"ug/m3";"18.891742435748";"A";"DATA_VALIDATE_ENV";
"PES04e";"2017/09/25 00:01";"2017/09/25 23:59";"20171212";"PM10";"PM10";"ug/m3";"19.8350591882698";"A";"DATA_VALIDATE_ENV";
"PES04e";"2017/09/26 00:01";"2017/09/26 23:59";"20171212";"PM10";"PM10";"ug/m3";"22.7009581931377";"A";"DATA_VALIDATE_ENV";
"PES04e";"2017/09/27 00:01";"2017/09/27 23:59";"20171212";"PM10";"PM10";"ug/m3";"26.8185763615955";"A";"DATA_VALIDATE_ENV";
"PES04e";"2017/09/28 00:01";"2017/09/28 23:59";"20171212";"PM10";"PM10";"ug/m3";"21.4219396049047";"A";"DATA_VALIDATE_ENV";
"PES04e";"2017/09/29 00:01";"2017/09/29 23:59";"20171212";"PM10";"PM10";"ug/m3";"19.7350513950225";"A";"DATA_VALIDATE_ENV";
"PES04e";"2017/09/30 00:01";"2017/09/30 23:59";"20171212";"PM10";"PM10";"ug/m3";"10.3121549404621";"A";"DATA_VALIDATE_ENV";
"PES04e";"2017/10/01 00:01";"2017/10/01 23:59";"20171212";"PM10";"PM10";"ug/m3";"8.15306777165283";"A";"DATA_VALIDATE_ENV";
"PES04e";"2017/10/02 00:01";"2017/10/02 23:59";"20171212";"PM10";"PM10";"ug/m3";"7.81932486159016";"A";"DATA_VALIDATE_ENV";
"PES04e";"2017/10/03 00:01";"2017/10/03 23:59";"20171212";"PM10";"PM10";"ug/m3";"8.85364711717182";"A";"DATA_VALIDATE_ENV";
"PES04e";"2017/10/04 00:01";"2017/10/04 23:59";"20171212";"PM10";"PM10";"ug/m3";"17.9576155885516";"A";"DATA_VALIDATE_ENV";
"PES04e";"2017/10/05 00:01";"2017/10/05 23:59";"20171212";"PM10";"PM10";"ug/m3";"14.4775378340734";"A";"DATA_VALIDATE_ENV";
"PES04e";"2017/10/06 00:01";"2017/10/06 23:59";"20171212";"PM10";"PM10";"ug/m3";"11.137624671752";"A";"DATA_VALIDATE_ENV";
"PES04e";"2017/10/07 00:01";"2017/10/07 23:59";"20171212";"PM10";"PM10";"ug/m3";"10.0126721433864";"A";"DATA_VALIDATE_ENV";
"PES04e";"2017/10/08 00:01";"2017/10/08 23:59";"20171212";"PM10";"PM10";"ug/m3";"7.39299809811596";"A";"DATA_VALIDATE_ENV";
"PES04e";"2017/10/09 00:01";"2017/10/09 23:59";"20171212";"PM10";"PM10";"ug/m3";"12.6273283418619";"A";"DATA_VALIDATE_ENV";
"PES04e";"2017/10/10 00:01";"2017/10/10 23:59";"20171212";"PM10";"PM10";"ug/m3";"10.0236802384885";"A";"DATA_VALIDATE_ENV";
"PES04e";"2017/10/11 00:01";"2017/10/11 23:59";"20171212";"PM10";"PM10";"ug/m3";"10.3481036877645";"A";"DATA_VALIDATE_ENV";
"PES04e";"2017/10/12 00:01";"2017/10/12 23:59";"20171212";"PM10";"PM10";"ug/m3";"13.7497201148382";"A";"DATA_VALIDATE_ENV";
"PES04e";"2017/10/13 00:01";"2017/10/13 23:59";"20171212";"PM10";"PM10";"ug/m3";"13.9603767062825";"A";"DATA_VALIDATE_ENV";
"PES05t";"2017/01/01 00:01";"2017/01/01 23:59";"20170118";"PM10";"PM10";"ug/m3";"16.0801719888334";"A";"DATA_VALIDATE_ENV";
"PES05t";"2017/01/02 00:01";"2017/01/02 23:59";"20170223";"PM10";"PM10";"ug/m3";"15.0463076397228";"A";"DATA_VALIDATE_ENV";
"PES05t";"2017/01/03 00:01";"2017/01/03 23:59";"20170223";"PM10";"PM10";"ug/m3";"20.7473131725656";"A";"DATA_VALIDATE_ENV";
"PES05t";"2017/01/04 00:01";"2017/01/04 23:59";"20170223";"PM10";"PM10";"ug/m3";"12.8061330709833";"A";"DATA_VALIDATE_ENV";
"PES05t";"2017/01/05 00:01";"2017/01/05 23:59";"20170223";"PM10";"PM10";"ug/m3";"15.5692001940506";"A";"DATA_VALIDATE_ENV";
"PES05t";"2017/01/06 00:01";"2017/01/06 23:59";"20170223";"PM10";"PM10";"ug/m3";"24.9274212854861";"A";"DATA_VALIDATE_ENV";
"PES05t";"2017/01/07 00:01";"2017/01/07 23:59";"20170223";"PM10";"PM10";"ug/m3";"25.3898058847366";"A";"DATA_VALIDATE_ENV";
"PES05t";"2017/01/08 00:01";"2017/01/08 23:59";"20170223";"PM10";"PM10";"ug/m3";"16.9869994113866";"A";"DATA_VALIDATE_ENV";
"PES05t";"2017/01/09 00:01";"2017/01/09 23:59";"20170223";"PM10";"PM10";"ug/m3";"22.6514405169952";"A";"DATA_VALIDATE_ENV";
"PES05t";"2017/01/10 00:01";"2017/01/10 23:59";"20170223";"PM10";"PM10";"ug/m3";"16.8663633012408";"A";"DATA_VALIDATE_ENV";
"PES05t";"2017/01/11 00:01";"2017/01/11 23:59";"20170223";"PM10";"PM10";"ug/m3";"27.3445632958096";"A";"DATA_VALIDATE_ENV";
"PES05t";"2017/01/12 00:01";"2017/01/12 23:59";"20170223";"PM10";"PM10";"ug/m3";"29.4339821137161";"A";"DATA_VALIDATE_ENV";